Find Starlink 3121

NORAD ID: 49428 Int'l Des: 2021-104 Owner: SPXS Country: US Constellation: starlink operational
LEOCIRCULAR

現在のビュー

3D地球を読み込み中...

About Starlink 3121

Starlink 3121 (NORAD 49428) is a starlink constellation satellite (v1.5) launched Nov 13, 2021 by SPXS of US. It operates in LEO, CIRCULAR orbit with a mass of 290.00 kg.

次回通過

Passes for default location (London). Set your location on the main map for personalized predictions.

高度履歴

Loading altitude history...

軌道要素

1 49428U 21104W 26263.14271446 .00011823 00000-0 61978-3 0 9992
2 49428 53.1585 72.0626 0001436 130.5026 229.6094 15.16195198268048
Epoch: Sep 20, 2026 • Age: 17 hours

現在のステータス

高度 536.3 km
遠地点 / 近地点 N/A
速度 7.59 km/s
衛星直下点 -52.22°S, 47.95°E
打ち上げ日 Nov 13, 2021
運用期間 4.8 years
タイプ internet

技術仕様

分類 Payload
質量 290.00 kg
乾燥質量 270.00 kg
長さ 0.20 m
スパン 9.00 m
形状 ? Box + pan
製造者 SPXS
バスタイプ Starlink
フェーズステータス In Orbit
所有者/国 SPXS/US

Most Searched